Location: Albany
(35.0170°S, 117.8920°E)
Time: 10:01:00
(UTC+08:00)

S-56A Canister/Altair - Pass Details

Date: 23 January 2021
Orbit: 632 x 2501 km, 38.9° (Epoch: 25 February)

Event Time Altitude Azimuth Distance (km) Brightness Sun altitude
Rises 10:11:38 0° 12° (NNE) 5,114 12.0 57.6°
Reaches altitude 10° 10:18:54 10° 43° (NE) 4,604 12.1 59.0°
Maximum altitude 10:22:05 11° 58° (ENE) 4,672 12.2 59.6°
Drops below altitude 10° 10:25:26 10° 72° (ENE) 4,921 12.3 60.3°
Sets 10:34:11 0° 100° (E) 6,165 12.5 61.9°
